Time,TemperatureF,DewpointF,PressureIn,WindDirection,WindDirectionDegrees,WindSpeedMPH,WindSpeedGustMPH,Humidity,HourlyPrecipIn,Conditions,Clouds,dailyrainin,SoftwareType,DateUTC
2013-03-15 00:00:00,26.0,17.0,30.05,North,0,0.0,-999.0,67,-99.99,,,-99.99,,2013-03-15 00:00:00,
2013-03-15 00:21:00,26.0,17.0,30.05,North,0,0.0,-999.0,67,-99.99,,,-99.99,,2013-03-15 00:21:00,
2013-03-15 00:31:00,26.0,17.0,30.05,North,0,0.0,-999.0,67,-99.99,,,-99.99,,2013-03-15 00:31:00,
2013-03-15 00:41:00,26.0,17.0,30.05,North,0,0.0,-999.0,67,-99.99,,,-99.99,,2013-03-15 00:41:00,
2013-03-15 00:51:00,26.0,17.0,30.05,North,0,0.0,-999.0,67,-99.99,,,-99.99,,2013-03-15 00:51:00,
2013-03-15 03:00:00,30.0,23.0,29.97,SSW,200,10.0,-999.0,75,-99.99,,,-99.99,,2013-03-15 03:00:00,
2013-03-15 03:21:00,30.0,23.0,29.97,SSW,200,10.0,-999.0,75,-99.99,,,-99.99,,2013-03-15 03:21:00,
2013-03-15 03:32:00,30.0,23.0,29.97,SSW,200,10.0,-999.0,75,-99.99,,,-99.99,,2013-03-15 03:32:00,
2013-03-15 03:42:00,30.0,23.0,29.97,SSW,200,10.0,-999.0,75,-99.99,,,-99.99,,2013-03-15 03:42:00,
2013-03-15 03:52:00,30.0,23.0,29.97,SSW,200,10.0,-999.0,75,-99.99,,,-99.99,,2013-03-15 03:52:00,
2013-03-15 06:00:00,30.0,27.0,29.86,WSW,240,14.0,-999.0,89,-99.99,,,-99.99,,2013-03-15 06:00:00,
2013-03-15 06:21:00,30.0,27.0,29.86,WSW,240,14.0,-999.0,89,-99.99,,,-99.99,,2013-03-15 06:21:00,
2013-03-15 06:31:00,30.0,27.0,29.86,WSW,240,14.0,-999.0,89,-99.99,,,-99.99,,2013-03-15 06:31:00,
2013-03-15 06:41:00,30.0,27.0,29.86,WSW,240,14.0,-999.0,89,-99.99,,,-99.99,,2013-03-15 06:41:00,
2013-03-15 06:52:00,30.0,27.0,29.86,WSW,240,14.0,-999.0,89,-99.99,,,-99.99,,2013-03-15 06:52:00,
2013-03-15 12:00:00,28.0,20.0,29.87,NNW,330,23.0,-999.0,70,-99.99,,,-99.99,,2013-03-15 12:00:00,
2013-03-15 12:21:00,28.0,20.0,29.87,NNW,330,23.0,-999.0,70,-99.99,,,-99.99,,2013-03-15 12:21:00,
2013-03-15 12:31:00,28.0,20.0,29.87,NNW,330,23.0,-999.0,70,-99.99,,,-99.99,,2013-03-15 12:31:00,
2013-03-15 12:41:00,28.0,20.0,29.87,NNW,330,23.0,-999.0,70,-99.99,,,-99.99,,2013-03-15 12:41:00,
2013-03-15 12:51:00,28.0,20.0,29.87,NNW,330,23.0,-999.0,70,-99.99,,,-99.99,,2013-03-15 12:51:00,
2013-03-15 15:00:00,28.0,18.0,29.91,NNW,330,23.0,-999.0,65,-99.99,,,-99.99,,2013-03-15 15:00:00,
2013-03-15 15:21:00,28.0,18.0,29.91,NNW,330,23.0,-999.0,65,-99.99,,,-99.99,,2013-03-15 15:21:00,
2013-03-15 15:32:00,28.0,18.0,29.91,NNW,330,23.0,-999.0,65,-99.99,,,-99.99,,2013-03-15 15:32:00,
2013-03-15 15:42:00,28.0,18.0,29.91,NNW,330,23.0,-999.0,65,-99.99,,,-99.99,,2013-03-15 15:42:00,
2013-03-15 15:52:00,28.0,18.0,29.91,NNW,330,23.0,-999.0,65,-99.99,,,-99.99,,2013-03-15 15:52:00,
2013-03-15 18:00:00,25.0,18.0,29.93,NW,320,24.0,-999.0,73,-99.99,,,-99.99,,2013-03-15 18:00:00,
2013-03-15 18:21:00,25.0,18.0,29.93,NW,320,24.0,-999.0,73,-99.99,,,-99.99,,2013-03-15 18:21:00,
2013-03-15 18:31:00,25.0,18.0,29.93,NW,320,24.0,-999.0,73,-99.99,,,-99.99,,2013-03-15 18:31:00,
2013-03-15 18:41:00,25.0,18.0,29.93,NW,320,24.0,-999.0,73,-99.99,,,-99.99,,2013-03-15 18:41:00,
2013-03-15 18:51:00,25.0,18.0,29.93,NW,320,24.0,-999.0,73,-99.99,,,-99.99,,2013-03-15 18:51:00,
2013-03-15 21:00:00,21.0,11.0,29.96,NW,310,24.0,-999.0,65,-99.99,,,-99.99,,2013-03-15 21:00:00,
2013-03-15 21:21:00,21.0,11.0,29.96,NW,310,24.0,-999.0,65,-99.99,,,-99.99,,2013-03-15 21:21:00,
2013-03-15 21:32:00,21.0,11.0,29.96,NW,310,24.0,-999.0,65,-99.99,,,-99.99,,2013-03-15 21:32:00,
2013-03-15 21:42:00,21.0,11.0,29.96,NW,310,24.0,-999.0,65,-99.99,,,-99.99,,2013-03-15 21:42:00,
2013-03-15 21:52:00,21.0,11.0,29.96,NW,310,24.0,-999.0,65,-99.99,,,-99.99,,2013-03-15 21:52:00,